Аэропорт
Баку (UBBB)

 UBBB / GYD
ЗЦ Ростов-на-Дону
Баку (UBBA)
Баку (UBBA)
 40.46750, 50.04670  / 10 ft

 UBBB 240430Z 04008KT 9999 OVC030 07/05 Q1025 R88/CLRD// NOSIG

Baku AIP (Eurocontrol 2018)
Название сценария Тип сценария Flight Simulator 9 Flight Simulator X Prepar3D v2 Prepar3D v3 Prepar3D v4 xPlane
Payware sceneries платный
Recommended scenery for FS9 бесплатный
Recommended scenery for FSX бесплатный
Recommended scenery for P3D бесплатный

Бакинский международный аэропорт имени Гейдара Алиева — один из пяти международных аэропортов, обслуживающих Азербайджан. Находится в 25 километрах к востоку от Баку. Порт приписки национальной авиакомпании «Азербайджанские авиалинии».

Принимаемые типы ВС
Ан-12, Ан-24, Ан-26, Ан-28, Ан-30, Ан-32, Ан-72, Ан-74, Ан-124(по согласованию), Ил-62, Ил-76, Ту-134, Ту-154, Як-40, Як-42, Airbus A319, Airbus A320, Airbus A321, Boeing 737, Boeing 747, Boeing 757, Boeing 767 и др. типы ВС 3-4 класса, вертолёты всех типов.



2019 © VATRUS division (Privacy Policy)